TimeEST,TemperatureF,Dew PointF,Humidity,Sea Level PressureIn,VisibilityMPH,Wind Direction,Wind SpeedMPH,Gust SpeedMPH,PrecipitationIn,Events,Conditions,WindDirDegrees,DateUTC
12:06 AM,69.8,66.2,88,30.20,10.0,Calm,Calm,-,N/A,,Mostly Cloudy,0,2013-01-06 05:06:00
12:22 AM,69.8,66.2,88,30.19,10.0,ENE,3.5,-,N/A,,Scattered Clouds,70,2013-01-06 05:22:00
12:53 AM,69.8,68.0,94,30.18,10.0,Calm,Calm,-,N/A,,Scattered Clouds,0,2013-01-06 05:53:00
1:53 AM,72.0,69.1,91,30.16,10.0,SE,5.8,-,0.01,,Mostly Cloudy,140,2013-01-06 06:53:00
2:53 AM,73.0,66.0,79,30.13,10.0,SE,8.1,-,N/A,,Overcast,130,2013-01-06 07:53:00
3:53 AM,72.0,64.9,78,30.12,10.0,ESE,6.9,-,N/A,,Overcast,120,2013-01-06 08:53:00
4:53 AM,73.0,68.0,84,30.12,10.0,ESE,6.9,-,N/A,,Overcast,110,2013-01-06 09:53:00
5:53 AM,73.0,69.1,87,30.12,10.0,ESE,6.9,-,N/A,,Overcast,120,2013-01-06 10:53:00
6:53 AM,73.0,70.0,90,30.14,10.0,ESE,4.6,-,N/A,,Overcast,110,2013-01-06 11:53:00
7:53 AM,75.0,71.1,87,30.15,10.0,ESE,6.9,-,N/A,,Mostly Cloudy,110,2013-01-06 12:53:00
8:53 AM,77.0,70.0,79,30.17,10.0,SE,8.1,-,N/A,,Scattered Clouds,130,2013-01-06 13:53:00
9:53 AM,79.0,69.1,72,30.17,10.0,SE,8.1,-,N/A,,Scattered Clouds,140,2013-01-06 14:53:00
10:15 AM,78.8,69.8,74,30.17,10.0,SE,11.5,19.6,N/A,,Mostly Cloudy,130,2013-01-06 15:15:00
10:23 AM,78.8,69.8,74,30.16,10.0,SE,13.8,-,N/A,,Mostly Cloudy,130,2013-01-06 15:23:00
10:35 AM,80.6,69.8,70,30.16,10.0,SE,11.5,-,N/A,,Mostly Cloudy,140,2013-01-06 15:35:00
10:53 AM,81.0,69.1,67,30.15,10.0,ESE,13.8,21.9,N/A,,Mostly Cloudy,120,2013-01-06 15:53:00
11:24 AM,82.4,69.8,66,30.14,10.0,SE,8.1,17.3,N/A,,Mostly Cloudy,130,2013-01-06 16:24:00
11:53 AM,80.1,69.1,69,30.13,10.0,SSE,11.5,21.9,N/A,,Mostly Cloudy,150,2013-01-06 16:53:00
12:53 PM,81.0,69.1,67,30.10,10.0,SE,12.7,-,N/A,,Mostly Cloudy,130,2013-01-06 17:53:00
1:53 PM,80.1,69.1,69,30.08,10.0,SSE,15.0,-,N/A,,Scattered Clouds,150,2013-01-06 18:53:00
2:41 PM,82.4,69.8,66,30.07,10.0,SSE,13.8,19.6,N/A,,Mostly Cloudy,150,2013-01-06 19:41:00
2:48 PM,80.6,69.8,70,30.07,10.0,SE,12.7,-,N/A,,Scattered Clouds,140,2013-01-06 19:48:00
2:53 PM,80.1,69.1,69,30.07,10.0,SE,10.4,18.4,N/A,,Scattered Clouds,140,2013-01-06 19:53:00
3:53 PM,78.1,69.1,74,30.07,10.0,SSE,10.4,-,N/A,,Partly Cloudy,150,2013-01-06 20:53:00
4:53 PM,78.1,69.1,74,30.08,10.0,SSE,11.5,-,N/A,,Partly Cloudy,150,2013-01-06 21:53:00
5:53 PM,75.9,69.1,79,30.08,10.0,SE,6.9,-,N/A,,Clear,140,2013-01-06 22:53:00
6:53 PM,73.9,69.1,85,30.10,10.0,Calm,Calm,-,N/A,,Clear,0,2013-01-06 23:53:00
7:53 PM,73.9,69.1,85,30.11,10.0,SSE,3.5,-,N/A,,Clear,150,2013-01-07 00:53:00
8:53 PM,72.0,69.1,91,30.12,10.0,Calm,Calm,-,N/A,,Clear,0,2013-01-07 01:53:00
9:53 PM,66.9,66.0,97,30.12,10.0,Calm,Calm,-,N/A,,Clear,0,2013-01-07 02:53:00
10:43 PM,66.2,66.2,100,30.13,2.0,Calm,Calm,-,N/A,,Clear,0,2013-01-07 03:43:00
10:53 PM,68.0,66.9,96,30.13,3.0,Calm,Calm,-,N/A,,Clear,0,2013-01-07 03:53:00
11:38 PM,66.2,66.2,100,30.13,1.8,Calm,Calm,-,N/A,,Partly Cloudy,0,2013-01-07 04:38:00
11:49 PM,66.2,64.4,94,30.12,3.0,Calm,Calm,-,N/A,,Partly Cloudy,0,2013-01-07 04:49:00
11:53 PM,64.9,64.9,100,30.12,3.0,Calm,Calm,-,N/A,,Partly Cloudy,0,2013-01-07 04:53:00